This is the latest recevied weather packets stored in our database for station/object KG7QQL. If no packets are shown the sender has not sent any weather packets the latest 10 day(s).
| Time | Temp. | Humidity | Pressure | Rain* | Wind** | Luminosity | Snow |
|---|---|---|---|---|---|---|---|
| 1777825206 | 17.22° C | 69% | - | 0 mm | - | - | - |
| 1777824903 | 17.78° C | 68% | - | 0 mm | - | - | - |
| 1777824599 | 17.78° C | 66% | - | 0 mm | - | - | - |
| 1777824296 | 18.33° C | 65% | - | 0 mm | - | - | - |
| 1777823991 | 17.78° C | 65% | - | 0 mm | - | - | - |
| 1777823688 | 17.78° C | 65% | - | 0 mm | - | - | - |
| 1777823385 | 17.78° C | 66% | - | 0 mm | - | - | - |
| 1777823083 | 17.78° C | 66% | - | 0 mm | - | - | - |
| 1777822780 | 17.78° C | 66% | - | 0 mm | - | - | - |
| 1777822478 | 17.78° C | 67% | - | 0 mm | - | - | - |
| 1777822176 | 17.22° C | 67% | - | 0 mm | - | - | - |
| 1777821872 | 17.22° C | 68% | - | 0 mm | - | - | - |
| 1777821570 | 16.67° C | 70% | - | 0 mm | - | - | - |
| 1777821268 | 16.67° C | 73% | - | 0 mm | - | - | - |
| 1777820965 | 16.11° C | 73% | - | 0 mm | - | - | - |
| 1777820661 | 16.67° C | 73% | - | 0 mm | - | - | - |
| 1777820357 | 15.56° C | 74% | - | 0 mm | - | - | - |
| 1777820055 | 15.56° C | 74% | - | 0 mm | - | - | - |
| 1777819752 | 15.56° C | 74% | - | 0 mm | - | - | - |
| 1777819450 | 15.56° C | 73% | - | 0 mm | - | - | - |
| 1777819148 | 15.56° C | 74% | - | 0 mm | - | - | - |
| 1777818844 | 15.56° C | 75% | - | 0 mm | - | - | - |
| 1777818540 | 15° C | 75% | - | 0 mm | - | - | - |
| 1777818238 | 15° C | 74% | - | 0 mm | - | - | - |
| 1777817933 | 14.44° C | 75% | - | 0 mm | - | - | - |
* Rain latest hour (hover to see other rain measurements)
** Current wind speed in m/s (hover to see current wind gust speed)